Tracking 19192 objects as of 20-Jun-2018
HD Live streaming from Space Station
objects crossing your sky now

THORAD AGENA D DEB

Track THORAD AGENA D DEB now!
10-day predictions


NORAD ID: 4935
Int'l Code: 1970-025GB
Perigee: 910.4 km
Apogee: 1,008.9 km
Inclination: 99.8 °
Period: 104.1 minutes
Semi major axis: 7330 km
RCS: 0.0346 m2 (small)
Launch date: April 8, 1970
Source: United States (US)
Launch site: AIR FORCE WESTERN TEST RANGE (AFWTR)

Note: This is SATELLITE DEBRIS
aabbcc
Your satellite tracking list
Your tracking list is empty




NASA's NSSDC Master Catalog

Two Line Element Set (TLE):
1  4935U 70025GB  18170.78701170 +.00000212 +00000-0 +23287-3 0  9993
2  4935 099.8415 106.6659 0067193 087.9154 302.3114 13.83224618413046
Source of the keplerian elements: AFSPC